Theta_e
310 310 311 311 311 311 310 310 310 309 308 307 305 305 307 308 309 309 308 307 306 305 305 305 305 305 305 304 303 302 302 303 303 304 304 304 304 304 305 305 305 306 306 308 309 310 312 314 316 318 319 320 320 320 320 320 320 319 318 317 316 316 315 314 314 316 317 318 320 322 324 325 326 327
310 311 311 311 311 311 312 312 311 311 310 310 309 308 308 308 309 309 309 307 306 306 306 306 306 305 304 304 303 302 302 302 302 303 303 304 304 304 305 305 305 305 305 306 306 306 307 308 310 312 314 316 317 318 319 319 318 318 318 317 317 316 316 314 313 313 314 315 316 318 320 322 324 325
309 310 310 310 310 311 311 312 312 312 312 312 312 311 311 311 311 311 310 308 307 308 307 307 307 305 304 303 302 302 302 302 301 302 302 303 303 304 304 305 305 305 305 306 306 306 306 307 307 307 308 310 311 312 313 313 313 313 313 314 314 315 316 316 315 314 314 315 314 315 316 319 321 323
307 308 309 309 310 310 310 310 311 312 312 312 312 312 312 312 312 312 312 310 309 309 309 308 307 306 304 302 302 302 301 301 301 301 301 301 301 302 302 303 304 305 306 306 306 306 307 307 307 307 307 307 308 308 308 309 309 309 309 310 310 311 311 313 313 314 315 315 315 315 314 315 316 318
307 307 307 307 308 308 309 309 309 310 310 311 311 312 312 312 312 311 312 312 311 310 310 309 307 306 304 302 302 302 301 301 301 300 300 300 300 300 300 301 302 303 304 305 306 306 307 307 307 307 307 308 308 308 308 308 308 309 309 309 310 309 309 309 309 311 312 314 315 314 314 314 313 313
307 307 307 307 307 307 307 307 308 308 309 309 310 310 311 311 312 311 311 311 311 311 311 310 309 307 305 304 303 303 302 301 301 301 301 300 300 300 299 299 299 300 301 302 303 304 304 305 306 306 306 307 307 307 308 308 308 308 308 309 309 309 309 310 309 309 310 311 313 313 313 313 313 314
308 308 309 310 310 309 308 308 307 308 308 309 309 309 309 310 311 311 311 311 311 312 311 311 310 309 309 308 306 305 304 302 301 301 301 301 301 301 300 300 300 300 300 300 300 300 301 301 302 302 303 303 304 305 306 306 307 307 307 307 307 307 307 308 309 309 310 310 311 311 312 312 313 314
313 312 312 312 313 313 312 311 309 308 308 309 310 310 309 310 310 310 311 311 311 310 311 311 310 310 310 310 309 308 307 305 304 302 302 302 302 302 302 302 301 301 301 301 300 300 300 300 300 300 300 300 301 301 302 303 304 304 305 305 304 304 304 305 306 308 310 311 311 311 311 311 312 313
316 315 315 315 315 315 315 314 312 311 310 310 311 312 312 311 310 310 311 311 310 309 309 309 310 310 310 310 310 310 308 307 306 305 305 304 304 304 304 303 303 303 303 303 302 301 301 300 300 300 300 300 300 300 300 300 300 301 301 302 301 301 301 303 305 307 308 310 311 312 311 312 312 313
316 316 316 316 316 316 316 315 315 314 313 311 311 313 313 312 312 311 311 311 310 309 309 310 310 310 310 310 310 310 309 308 307 307 307 307 306 306 305 305 305 305 304 304 304 303 302 302 301 300 300 300 300 300 300 300 300 300 300 300 300 300 301 302 304 306 307 308 310 312 313 313 313 313
316 317 316 316 316 316 316 316 315 315 314 313 312 312 312 312 312 312 312 311 311 311 311 311 310 310 310 309 309 309 309 308 308 308 308 308 307 307 306 306 306 305 305 305 305 304 304 303 303 302 301 301 300 300 300 300 300 300 300 300 300 300 300 301 303 305 307 307 308 311 312 313 314 314
315 315 315 315 315 315 316 316 316 315 314 313 313 313 312 311 311 312 312 311 311 311 311 311 310 310 309 309 308 308 308 308 308 307 308 307 307 308 307 306 306 305 305 304 304 304 303 303 303 303 302 301 301 300 300 299 299 300 300 300 300 300 299 300 301 303 306 308 308 309 311 312 313 314
315 315 315 315 315 316 316 316 316 316 315 313 312 312 312 312 311 311 311 311 311 311 311 310 310 309 309 308 308 307 307 307 307 307 307 306 306 307 306 306 305 305 304 304 303 303 303 302 302 301 301 300 300 300 299 299 299 299 299 300 300 300 299 299 299 300 303 306 308 309 310 311 312 313
315 315 315 315 316 316 316 316 316 316 315 314 313 311 311 311 311 309 309 309 310 310 309 309 309 308 308 308 308 307 306 306 306 306 306 305 305 305 305 304 304 304 303 303 303 303 302 302 301 300 299 299 299 299 298 299 299 299 299 299 299 299 299 299 299 299 300 302 305 307 309 311 311 312
314 315 315 315 315 316 316 316 316 316 316 315 314 312 309 309 309 308 307 308 309 309 309 309 309 308 307 308 307 306 306 306 305 305 305 305 304 304 304 303 303 303 302 302 303 302 301 301 300 299 298 298 298 298 298 298 298 298 298 299 299 299 299 299 299 299 299 299 300 303 305 308 309 311
310 309 310 311 312 314 316 317 317 317 317 316 315 313 309 308 308 307 307 307 308 309 309 308 308 307 307 307 306 306 305 305 305 305 304 304 303 303 302 302 301 301 301 301 301 301 300 299 299 298 297 297 297 297 297 297 297 298 298 298 298 298 298 299 299 299 299 299 299 299 301 303 304 306
303 303 303 304 305 307 310 313 316 318 318 317 316 313 308 307 307 307 306 307 308 308 308 307 306 306 305 305 305 305 305 304 304 304 303 303 302 302 301 301 300 299 299 298 299 299 299 297 297 297 297 297 297 297 297 297 297 297 297 297 297 298 298 298 298 299 299 299 299 299 299 300 300 302
302 302 302 303 304 305 307 310 314 317 317 317 315 312 308 307 307 306 306 307 307 307 307 306 305 304 304 304 304 304 304 304 303 303 302 302 301 301 300 300 299 298 298 297 296 296 297 296 296 296 296 297 297 297 297 297 297 297 297 297 297 297 297 298 298 298 299 299 300 300 300 300 300 300
302 302 302 303 304 306 308 310 313 316 316 316 314 311 308 307 306 306 306 306 307 307 306 305 304 303 303 303 304 304 303 303 302 302 301 301 300 299 298 298 297 297 297 296 295 295 296 296 295 296 296 297 297 297 297 297 297 297 297 297 297 297 298 299 299 299 299 299 300 300 300 301 300 301
302 302 302 302 303 304 306 309 311 313 313 313 311 309 307 306 306 305 306 306 307 307 305 304 303 303 303 303 303 303 302 301 301 300 299 298 297 296 296 296 296 295 295 295 295 295 295 295 295 295 295 296 297 297 297 297 297 296 296 297 297 297 299 299 299 299 299 299 299 299 300 301 302 302
302 302 302 301 302 302 304 306 308 310 310 309 307 306 305 305 305 306 306 306 306 305 303 303 303 302 302 302 302 302 301 300 299 298 297 296 295 295 295 294 295 294 294 294 295 295 294 294 294 294 295 295 296 296 296 296 296 296 296 296 296 297 298 299 299 299 299 298 298 298 299 300 301 301
302 302 302 301 301 302 302 304 307 308 308 306 305 305 305 305 306 306 305 304 303 303 302 302 302 302 302 302 301 301 299 298 298 297 296 295 295 294 294 294 294 294 294 295 295 294 294 294 294 294 294 295 295 295 295 295 295 295 295 295 295 296 297 298 299 299 298 298 298 298 298 299 299 299
302 302 301 301 302 302 303 304 306 308 307 307 306 306 305 305 305 304 303 303 302 302 302 301 301 301 301 301 300 298 298 297 296 296 295 294 294 293 293 293 293 294 294 294 294 294 293 293 294 294 294 294 295 295 295 295 295 294 294 294 294 294 295 296 298 298 298 298 297 297 297 297 298 298
302 302 302 302 302 303 304 305 305 306 306 306 305 305 304 304 304 303 303 302 302 301 300 300 300 300 300 299 298 297 296 296 295 294 294 294 293 293 293 293 293 293 294 294 293 294 293 293 293 293 294 294 294 294 294 294 294 294 294 294 294 294 294 294 295 296 297 297 297 297 296 297 297 297
302 302 303 303 304 304 304 305 305 305 305 305 305 304 304 304 303 303 303 302 302 301 301 300 300 299 298 297 296 295 295 294 294 294 294 294 294 294 294 293 293 293 293 293 293 293 293 293 293 293 293 294 294 294 294 294 294 294 294 294 294 294 294 294 295 295 295 296 296 295 295 295 295 296
302 302 303 304 304 304 304 304 304 304 303 304 303 303 303 303 303 303 303 302 302 301 300 298 297 296 296 295 295 295 295 295 295 295 295 295 295 295 294 294 293 292 293 293 293 292 292 293 293 293 293 294 294 294 294 294 293 293 293 293 294 294 294 295 295 295 295 295 296 296 295 295 295 296
303 303 303 304 304 304 304 304 303 303 303 303 303 302 302 302 301 301 300 299 298 297 296 296 295 295 295 295 295 295 295 295 295 295 295 295 295 294 294 293 293 292 292 292 292 292 292 292 292 292 293 293 293 293 293 293 293 293 293 293 293 293 294 294 295 295 295 295 296 296 295 295 296 297
303 303 303 303 303 303 303 303 303 303 302 302 301 300 299 298 298 297 297 296 296 295 295 295 294 295 295 295 295 295 295 295 294 294 294 294 294 294 293 293 293 292 292 292 292 291 291 291 292 292 292 292 293 293 293 293 293 293 293 292 293 293 293 294 294 295 295 295 296 296 296 296 297 297
303 303 303 303 303 302 302 301 300 299 299 298 297 297 296 296 296 296 295 295 295 294 294 295 295 295 295 294 294 294 294 294 294 294 293 293 293 293 292 292 292 292 292 292 292 291 291 291 291 291 291 292 292 292 292 292 292 292 292 292 292 292 293 293 294 295 295 295 296 296 296 296 297 296
303 303 302 302 302 301 299 298 297 296 296 296 296 296 296 296 295 295 294 294 294 294 294 294 294 294 294 294 294 294 294 294 293 293 292 292 292 292 292 292 292 292 292 292 291 291 291 290 290 290 290 291 291 291 292 292 292 292 292 291 291 292 292 293 294 294 295 295 295 296 296 296 296 296
302 302 302 301 300 298 297 296 296 296 296 296 296 296 296 295 294 294 294 294 294 294 294 294 294 294 294 294 294 293 293 293 292 292 292 292 292 292 291 291 291 291 292 292 291 291 290 290 290 290 290 290 290 291 291 291 291 291 291 291 291 291 292 292 293 294 294 295 295 295 295 295 295 295
302 302 301 299 297 296 296 296 296 296 296 296 296 295 294 294 294 294 294 294 293 293 293 293 293 293 293 293 292 292 292 292 292 292 291 291 291 291 291 290 290 291 291 291 291 291 290 290 290 290 290 290 290 290 290 290 290 290 291 291 291 291 291 292 292 293 294 294 295 295 294 295 295 295
302 300 298 297 296 295 296 296 296 296 296 296 295 294 294 294 294 293 293 293 293 293 293 293 293 292 292 291 291 291 291 291 291 291 291 291 291 291 290 290 290 290 290 291 291 291 291 290 290 290 290 290 290 290 290 290 290 290 290 290 291 291 291 292 292 293 294 294 294 294 294 295 295 295
300 297 296 296 295 295 295 296 296 296 295 294 294 294 294 294 293 293 292 292 292 292 292 292 292 291 291 291 291 291 290 291 291 291 291 291 291 290 290 290 290 290 290 290 290 291 291 290 290 290 290 290 290 290 290 290 290 290 291 291 291 291 292 292 293 293 293 294 294 294 294 295 295 295
298 296 296 295 295 295 296 296 295 295 294 293 294 294 293 293 292 292 291 291 292 292 292 292 291 291 290 290 290 290 291 291 291 291 291 290 290 290 290 290 290 290 290 290 291 291 291 291 291 290 290 290 290 290 291 291 291 291 291 291 291 292 292 293 293 293 294 294 294 294 294 294 294 295
297 296 296 295 296 296 296 295 294 294 293 294 294 293 293 292 291 291 291 291 292 292 292 291 291 290 290 290 290 290 291 291 291 291 291 290 290 290 290 290 290 290 291 291 291 291 291 291 291 291 291 290 290 291 291 291 291 291 291 291 292 292 292 293 293 293 293 294 294 294 294 294 294 294
296 296 296 296 296 296 295 294 293 293 294 294 294 293 292 291 290 290 290 291 292 292 291 291 291 290 290 290 290 290 291 291 290 290 290 290 290 290 290 290 291 291 291 291 291 291 291 291 292 291 290 290 290 290 291 291 291 291 291 291 291 292 292 293 293 293 293 294 294 294 294 295 295 295
296 296 296 296 296 295 294 293 293 294 294 294 293 292 291 290 290 290 290 291 292 291 291 291 290 290 290 290 290 290 290 290 290 290 290 290 290 290 291 291 291 292 291 291 291 291 292 292 293 292 291 290 290 290 291 291 291 291 291 291 291 292 292 292 292 293 293 294 294 294 295 295 295 296
295 296 296 296 295 294 293 293 294 294 294 293 292 291 290 289 289 290 290 291 292 291 291 291 291 290 290 290 290 290 290 290 290 290 290 290 290 291 291 291 291 292 292 292 292 292 293 293 293 293 292 291 290 290 290 290 290 290 291 291 291 291 291 291 292 292 293 293 294 294 295 295 296 296
296 296 296 295 294 293 293 293 294 294 293 292 292 290 289 289 289 290 290 291 291 291 291 291 290 290 290 290 290 290 289 290 290 290 290 290 291 291 291 291 292 292 292 293 293 293 293 294 294 293 293 292 291 291 290 290 290 291 291 291 291 291 291 291 292 292 293 293 293 294 295 295 296 296
296 295 295 294 293 293 293 294 294 293 292 292 291 290 289 289 289 289 290 291 291 291 291 290 290 290 290 290 290 289 289 290 290 290 290 290 291 291 291 292 292 292 293 293 293 294 294 294 294 294 294 293 293 292 291 291 291 291 291 291 291 291 291 292 292 292 293 293 293 294 295 295 295 295
295 294 294 293 292 293 294 293 293 292 292 291 290 290 289 289 289 289 290 290 291 291 291 290 289 289 290 290 289 289 289 290 290 291 291 291 291 291 291 292 292 293 293 293 293 294 294 294 294 294 294 294 293 292 291 291 291 291 291 291 292 292 292 292 292 293 293 293 294 294 294 294 295 295
294 293 292 292 293 293 293 293 292 292 291 291 290 290 289 288 289 289 290 290 291 291 290 290 289 289 289 289 289 289 290 290 290 290 291 291 291 291 291 292 292 293 293 293 293 294 294 294 294 294 294 294 293 292 292 291 291 291 291 292 292 292 292 292 293 293 294 294 294 295 294 294 294 294
293 292 292 292 293 293 293 292 292 292 291 290 290 289 289 289 289 289 290 290 290 290 290 290 290 289 289 289 290 290 290 290 290 290 290 291 291 291 291 292 292 293 293 293 293 294 294 294 294 295 294 294 293 293 292 292 291 291 292 292 292 292 293 293 294 294 294 295 295 294 294 294 294 294
291 291 292 293 293 293 293 292 292 291 290 290 289 289 289 289 289 289 290 290 290 290 290 290 290 289 289 289 289 290 290 290 290 290 290 290 291 291 291 292 292 293 293 293 293 294 294 294 294 295 294 294 294 293 293 292 292 292 292 292 293 293 293 293 294 294 294 294 294 294 294 294 294 294
Wind_Speed
17 16 16 16 16 16 16 15 15 14 14 13 12 12 11 11 11 10 9 10 9 8 9 9 9 9 9 9 9 9 8 7 8 7 7 7 7 7 7 8 8 8 8 8 9 9 9 9 9 9 10 12 12 12 12 12 12 13 13 13 14 14 14 15 16 17 17 17 18 18 18 19 20 20
15 15 14 13 14 14 14 14 14 14 15 14 14 14 12 11 11 11 10 11 10 9 9 10 10 10 10 10 10 9 8 7 7 7 7 7 7 7 7 7 7 7 7 7 8 8 8 9 9 9 10 12 14 14 15 15 16 16 16 16 16 16 15 15 16 17 17 17 18 18 18 19 20 20
13 12 12 11 11 11 11 11 11 11 12 12 13 13 13 12 12 11 11 10 10 10 10 11 11 11 11 11 10 9 8 7 7 6 7 7 7 7 7 7 7 6 6 6 6 7 7 8 8 9 9 10 12 13 14 15 16 16 17 17 18 18 18 18 17 17 17 18 18 18 18 19 20 21
10 9 9 8 8 8 8 8 8 8 8 8 8 9 10 10 10 10 10 9 9 10 10 11 12 12 12 11 10 10 9 9 8 8 7 7 6 6 7 7 7 7 7 7 7 7 7 8 9 9 9 10 11 12 13 14 14 15 15 16 16 17 18 18 19 19 19 18 18 18 18 18 19 21
6 6 6 5 5 5 5 5 5 5 5 5 5 5 6 7 7 8 8 8 9 10 11 12 12 13 12 12 12 11 11 10 10 10 9 8 7 6 7 7 8 8 9 9 9 10 10 10 11 11 12 12 13 13 14 14 15 15 15 16 16 16 17 17 17 18 20 19 18 18 19 19 19 20
4 4 5 4 3 3 3 3 3 2 2 3 2 2 3 4 5 6 7 7 8 9 10 11 12 13 13 13 13 13 12 12 12 11 11 10 10 9 9 9 9 9 9 10 11 12 13 14 14 15 16 16 16 17 17 17 17 18 18 18 18 18 18 18 17 16 17 18 19 19 19 20 20 20
3 3 3 3 3 3 2 2 2 2 1 1 1 1 1 2 3 4 5 6 6 7 8 8 10 11 12 13 13 13 13 13 13 12 11 11 11 10 10 10 11 11 11 11 12 13 14 15 16 17 18 19 19 20 20 20 20 20 21 20 20 20 20 20 19 18 17 17 18 20 20 21 21 22
2 2 2 2 2 2 2 1 0 1 1 1 1 2 2 2 2 2 3 5 6 6 6 7 8 9 10 12 13 13 13 13 13 12 12 11 11 11 11 11 12 12 12 13 13 14 15 16 17 18 18 19 20 21 21 22 22 22 23 23 23 23 22 22 21 20 19 18 18 19 20 21 22 23
1 1 2 2 2 2 2 2 2 2 2 2 2 2 2 2 2 3 3 4 5 6 7 7 7 8 9 10 11 12 13 14 14 14 14 13 13 13 13 14 14 14 14 15 15 15 15 16 17 19 20 20 21 21 22 22 22 23 24 24 24 24 23 23 22 21 20 20 19 19 19 20 21 22
6 5 5 5 5 5 5 4 5 5 5 4 4 4 3 3 3 4 4 4 4 4 6 7 8 9 9 9 10 11 12 13 14 15 16 17 16 17 17 18 18 18 18 18 18 17 17 18 18 19 20 21 22 22 23 23 23 23 23 23 24 24 23 23 22 22 22 21 21 20 20 21 22 23
9 9 9 9 10 9 9 8 8 8 8 8 7 7 6 5 5 5 5 5 4 3 4 6 8 9 9 10 11 12 12 13 14 15 16 17 18 19 19 20 21 22 22 22 21 20 20 21 21 21 21 21 21 22 23 23 24 24 24 24 24 24 24 23 23 23 23 22 22 22 22 22 23 24
11 12 12 12 12 13 13 12 12 12 12 12 11 11 10 9 8 7 7 7 7 6 6 7 8 10 11 12 13 14 14 15 15 16 16 17 18 18 20 22 23 23 24 24 25 25 24 24 24 24 23 23 22 22 22 23 23 24 25 25 25 24 24 24 24 24 24 24 23 23 23 24 24 25
13 13 13 13 14 14 15 15 16 16 16 16 15 15 13 12 12 11 10 10 10 10 9 8 9 10 12 14 16 17 17 18 18 19 19 19 20 20 20 22 24 24 24 24 25 27 27 27 27 27 27 26 24 23 23 23 23 23 23 24 25 25 25 24 24 24 25 25 25 24 24 24 24 24
13 13 14 14 14 15 16 17 18 18 19 18 19 18 16 14 14 14 12 12 12 12 11 11 10 10 12 15 18 19 19 20 20 21 21 22 23 23 23 24 26 27 26 26 26 26 27 27 27 28 29 29 28 27 25 24 23 23 23 23 23 24 25 24 23 23 23 25 26 26 25 25 24 24
13 14 14 14 14 15 16 16 18 19 20 20 20 19 18 16 16 16 15 14 13 13 14 14 13 11 13 16 18 20 21 22 22 23 24 24 26 27 28 28 29 29 29 29 28 27 28 28 27 28 29 29 29 28 27 26 24 23 22 22 22 23 23 23 23 22 21 22 24 26 27 26 26 25
14 14 15 16 16 16 16 16 17 19 20 21 20 19 19 18 18 18 17 16 15 15 16 16 15 13 14 16 19 21 23 24 24 25 25 26 27 29 30 31 32 32 31 31 31 30 30 30 30 29 30 31 29 28 27 25 24 24 23 22 21 22 22 21 21 21 20 20 21 23 25 26 26 26
11 12 13 14 15 16 16 17 17 18 20 21 20 19 20 20 20 19 18 16 16 17 17 16 15 15 14 16 19 22 25 26 26 26 26 28 29 30 32 33 34 34 33 32 33 32 32 33 33 32 31 31 30 28 26 24 23 23 23 22 21 20 20 20 19 19 18 18 19 20 21 23 24 25
6 7 8 9 11 13 14 15 17 17 19 19 18 18 20 21 20 19 17 17 17 18 18 17 17 16 15 17 20 23 26 27 26 27 27 29 30 31 33 35 35 34 34 33 32 33 32 33 34 33 32 31 30 28 26 25 24 23 22 21 20 18 17 17 18 18 17 16 16 17 18 20 21 23
3 3 4 5 7 9 11 12 14 14 15 15 13 15 19 21 20 18 17 18 19 19 19 18 18 18 18 19 21 24 26 27 27 28 29 30 31 33 34 35 35 34 35 34 33 33 33 33 32 32 32 31 30 28 26 25 24 23 21 20 18 16 15 16 16 17 17 16 16 15 16 16 17 19
3 3 4 4 4 6 7 8 9 9 9 9 10 13 17 19 18 18 18 19 20 20 19 19 19 19 20 21 23 25 27 27 27 29 30 30 31 32 32 33 32 31 32 35 34 33 32 30 29 30 32 31 32 30 28 25 24 22 20 19 19 18 18 18 18 17 17 17 17 16 16 15 15 16
5 6 6 6 6 5 5 5 4 4 5 6 9 13 16 17 17 18 19 19 20 19 19 19 20 20 21 22 25 27 28 28 29 30 30 30 30 31 30 29 29 29 31 34 33 30 28 27 27 29 31 31 31 30 29 26 24 21 18 18 19 19 20 21 21 21 20 19 18 18 17 16 17 18
8 8 9 8 8 7 6 5 3 2 4 7 11 13 15 17 18 18 19 19 19 19 19 20 21 21 23 25 27 29 29 30 31 31 30 30 30 31 29 28 29 30 30 30 31 29 26 25 26 27 28 27 25 25 26 26 22 19 19 19 20 21 21 22 23 23 23 22 21 20 19 18 19 19
9 10 9 9 8 8 7 5 3 3 5 9 11 14 15 17 17 17 18 18 19 20 20 21 22 23 25 27 29 30 30 31 31 31 30 30 31 31 30 29 28 27 24 24 29 31 29 27 26 25 23 23 21 19 20 21 18 16 17 17 19 21 22 25 27 27 27 26 25 24 22 20 20 19
9 9 9 8 7 7 6 6 5 5 7 8 11 12 14 15 16 17 18 19 20 20 21 22 24 26 28 29 29 30 31 31 31 31 31 30 30 30 30 29 28 26 25 25 29 31 29 27 27 23 20 20 21 19 17 18 16 15 15 15 15 17 18 21 25 26 27 28 28 28 27 25 24 22
9 8 8 7 7 7 7 7 8 8 9 10 11 12 14 16 17 18 19 21 21 22 24 25 27 28 29 29 29 30 30 30 31 30 30 29 29 29 30 30 29 29 27 25 26 27 25 22 21 21 19 19 22 22 20 19 17 16 17 16 15 15 15 16 18 18 20 21 22 24 25 26 25 24
8 7 7 7 7 8 8 9 9 10 11 12 13 14 15 17 18 19 20 22 23 24 25 26 27 27 28 28 29 29 29 29 29 28 28 28 28 28 29 28 28 27 25 23 23 23 22 19 18 18 19 20 22 23 23 21 19 17 17 15 15 15 14 15 15 15 15 16 16 17 20 22 22 21
7 7 7 8 8 9 9 10 10 11 12 13 14 15 16 17 18 19 20 21 22 23 24 25 26 26 26 27 27 27 27 28 28 28 28 28 28 28 28 27 27 26 26 24 21 19 20 21 19 18 19 20 22 23 23 22 19 18 17 16 15 15 15 15 16 16 16 15 15 16 18 20 20 20
7 7 8 9 9 10 10 10 11 12 13 14 15 16 17 17 17 18 19 20 21 22 23 24 24 24 25 25 26 27 27 27 27 28 28 28 28 27 27 26 26 26 26 25 22 19 19 19 18 17 18 19 21 22 21 20 19 18 17 17 17 16 16 16 17 17 16 15 15 16 16 17 18 19
8 8 9 10 10 11 11 11 11 12 12 13 14 14 14 15 16 17 18 19 20 21 21 22 23 23 24 25 26 27 27 27 27 26 26 26 26 26 25 25 25 25 25 24 22 19 18 17 17 17 18 19 20 21 21 21 20 18 17 18 18 18 18 17 17 17 16 16 16 15 15 15 16 17
9 10 10 11 10 10 10 10 10 10 11 11 12 13 14 15 16 17 17 18 19 19 21 22 23 24 25 26 26 26 26 26 25 25 24 24 24 24 23 23 23 23 22 20 18 16 15 15 15 16 18 18 19 20 20 21 21 19 17 18 19 19 18 18 17 16 16 16 15 14 15 15 16 18
10 10 10 10 10 9 9 9 8 9 10 11 12 14 15 15 16 16 16 16 18 19 20 22 23 24 24 25 25 25 25 25 23 23 23 23 23 22 21 21 22 22 21 18 16 14 13 13 13 14 16 17 18 19 18 19 20 20 18 18 20 20 19 18 17 17 16 15 15 16 17 18 19 20
11 10 9 9 8 8 7 7 8 9 10 11 13 14 15 15 15 15 15 16 18 20 21 22 23 23 22 22 24 24 24 23 22 22 21 21 21 20 19 20 21 20 19 17 15 13 12 12 12 13 14 15 17 17 17 18 19 19 19 19 19 20 20 20 20 20 18 17 19 20 20 19 20 20
10 8 7 7 7 6 6 7 8 9 11 13 14 14 13 12 13 13 15 17 19 21 22 23 23 23 21 22 23 22 21 21 21 21 21 21 20 19 18 18 18 18 18 18 16 14 12 11 12 13 14 15 16 16 17 18 19 19 18 18 19 20 20 19 19 19 17 17 20 22 21 20 18 18
8 6 6 6 6 6 6 7 9 10 11 12 12 11 10 10 12 14 16 18 20 21 22 22 22 22 22 22 22 21 21 21 21 21 21 19 18 17 16 17 18 18 19 19 18 16 14 14 13 13 14 14 15 15 16 17 19 18 17 17 18 19 18 17 16 16 16 16 19 20 21 21 19 19
7 6 6 6 6 6 7 8 9 10 11 10 9 8 8 10 13 15 17 19 20 21 21 21 21 20 21 22 21 21 21 22 22 21 19 17 16 17 17 19 20 20 20 20 20 18 17 17 15 15 15 14 14 15 14 15 17 17 15 15 16 16 15 14 13 13 13 14 16 17 19 20 19 18
6 6 5 5 6 6 7 9 9 10 9 7 6 6 8 11 13 15 17 19 20 20 21 21 21 20 21 21 21 21 21 21 21 20 18 17 17 18 19 20 22 22 22 22 21 20 18 17 16 16 16 15 15 15 14 13 14 15 15 15 14 13 13 13 13 13 13 14 14 15 17 19 19 18
6 5 5 5 6 7 8 8 8 8 6 5 5 7 9 11 14 15 17 19 20 20 21 21 20 20 21 21 21 21 20 19 19 18 18 18 19 19 19 20 22 23 23 22 21 19 18 18 17 17 18 17 16 16 15 12 12 13 13 13 13 13 13 14 14 13 13 13 13 14 15 17 18 17
6 5 5 5 6 7 7 7 6 5 3 3 5 7 10 11 14 16 18 19 20 20 20 19 18 18 19 20 20 19 18 18 18 17 17 18 19 20 20 21 22 23 22 22 21 19 19 18 18 18 18 17 17 16 15 13 11 10 11 12 13 14 15 15 15 14 12 12 11 10 10 12 13 13
6 5 5 5 6 6 6 5 4 2 2 3 6 8 9 11 14 16 18 19 20 20 20 19 19 19 19 19 18 17 16 17 17 17 18 19 20 20 20 21 22 22 22 22 21 19 18 18 18 17 17 18 18 17 15 15 16 16 15 15 15 15 15 15 15 15 14 13 11 9 8 9 9 9
6 5 5 5 5 5 4 3 2 1 1 4 6 8 9 12 14 16 18 20 20 20 20 19 19 20 19 19 18 16 15 15 16 17 19 19 20 19 20 21 22 22 22 21 21 19 18 18 17 16 17 19 19 18 17 18 20 20 17 13 11 12 13 13 13 14 15 14 12 10 9 8 7 7
6 5 5 5 5 4 3 2 2 1 2 4 6 7 9 11 14 16 18 19 20 20 19 18 19 21 21 20 19 17 15 15 17 17 18 19 19 19 19 20 21 21 21 21 21 20 18 17 16 16 17 19 19 17 17 17 17 15 11 8 6 8 11 13 13 13 14 12 11 10 9 9 8 7
6 5 5 5 5 4 3 3 2 1 3 5 6 8 9 11 14 16 18 19 20 20 19 19 20 22 22 21 20 18 17 17 18 18 18 18 18 19 19 20 20 21 21 21 21 20 18 16 14 15 17 17 16 15 16 15 13 10 8 6 5 7 10 11 12 12 11 10 10 10 9 8 7 6
5 5 6 5 4 4 4 3 2 2 4 5 7 8 10 11 14 16 18 19 20 20 19 20 21 22 22 22 22 21 20 19 18 17 17 17 17 19 19 19 19 20 20 21 21 20 17 15 13 14 15 15 14 13 14 12 10 8 6 5 5 7 9 9 9 9 9 10 10 10 9 7 4 3
6 6 6 5 4 4 4 3 1 3 4 6 7 9 10 11 13 15 17 19 19 19 20 21 22 22 23 23 23 22 22 21 18 16 15 16 18 19 19 20 20 20 20 20 20 19 17 14 13 13 13 13 12 11 11 9 7 6 6 6 6 7 7 6 6 6 7 8 8 7 7 8 6 2
6 5 5 4 4 4 3 1 1 3 5 6 8 9 10 11 12 14 16 18 19 19 20 22 23 24 24 24 24 24 24 23 21 17 15 16 18 19 19 19 20 19 19 19 19 18 17 14 12 11 11 11 11 11 10 9 7 6 6 5 5 5 4 4 4 4 4 4 5 5 5 7 6 3
Wind_Direction
112 109 109 107 105 105 105 104 104 104 107 111 120 131 143 145 139 132 117 99 84 76 71 60 50 46 41 38 37 34 27 21 16 13 10 8 5 3 354 343 337 331 324 318 311 306 300 291 283 277 274 275 276 277 277 278 277 277 278 280 281 282 282 280 276 273 271 269 269 269 269 267 265 265
115 112 110 106 102 102 102 100 101 102 104 105 106 110 117 123 121 117 110 98 84 71 62 56 49 44 40 37 36 34 32 26 17 10 7 5 7 3 350 343 342 336 331 326 318 312 305 299 291 283 276 274 274 275 275 276 276 276 276 277 277 277 276 277 275 273 272 271 270 268 267 267 266 263
118 116 114 109 103 101 98 97 99 98 99 100 100 100 101 100 95 91 92 91 81 66 54 48 43 41 41 38 35 34 34 31 25 16 8 3 360 347 336 335 335 331 329 324 317 312 306 303 299 293 288 282 279 280 281 281 281 280 279 278 276 273 270 270 270 269 271 273 272 270 265 262 261 262
118 117 116 116 112 108 102 97 96 94 93 93 92 92 90 86 80 75 74 73 66 53 42 38 34 35 38 37 34 32 32 30 27 23 16 7 357 339 330 326 322 319 316 311 307 302 298 296 294 291 289 286 284 285 285 287 288 289 290 288 285 281 276 273 268 264 265 268 271 272 269 263 259 259
109 111 108 109 111 112 107 100 94 90 89 84 77 77 75 73 70 66 62 57 49 37 29 27 26 26 28 30 29 29 28 25 23 21 15 9 4 354 345 334 323 315 307 303 300 297 294 292 290 288 285 284 283 282 282 283 285 287 290 292 293 293 290 286 279 268 261 260 264 268 269 268 266 264
89 92 88 84 83 92 105 108 107 102 93 80 66 54 54 57 57 57 55 49 43 31 21 18 17 18 19 19 18 19 20 19 18 16 10 6 4 0 357 349 339 329 318 311 304 299 296 293 291 289 287 285 284 283 282 282 282 283 284 287 289 291 291 291 288 281 269 261 259 262 264 266 267 269
81 77 75 73 66 62 72 98 132 140 114 84 52 13 16 28 35 40 36 31 31 27 20 15 11 10 7 7 7 7 7 8 9 9 4 0 356 351 351 348 343 338 331 325 318 311 306 301 298 294 291 289 287 285 284 283 283 283 283 284 285 286 287 287 287 285 279 269 261 259 260 261 263 266
70 60 52 49 45 41 39 41 127 176 168 334 333 334 335 344 359 5 5 5 11 16 14 10 4 359 354 353 353 353 353 354 355 356 355 352 348 343 342 340 338 335 332 330 327 322 317 312 309 305 301 298 294 290 287 285 283 282 281 281 282 281 282 282 282 281 278 274 267 261 258 259 260 261
302 314 320 316 318 329 339 338 322 299 280 283 300 309 308 304 303 313 325 341 1 11 11 7 3 357 351 344 341 341 343 342 341 340 338 335 334 335 334 331 330 329 328 328 326 322 319 316 313 312 309 307 304 300 296 292 289 285 282 280 280 280 278 276 276 276 274 271 268 263 258 257 259 261
274 277 278 281 284 283 287 294 298 300 295 284 280 276 276 274 275 286 297 311 339 0 6 6 3 358 352 345 339 336 334 333 331 330 329 328 327 328 329 328 325 324 323 322 321 319 317 316 314 313 311 308 307 305 302 300 296 293 289 286 282 280 278 274 271 270 270 268 265 261 256 254 256 260
265 262 262 266 270 270 270 273 277 282 285 286 283 275 269 267 267 271 276 281 295 321 347 356 353 349 346 343 340 334 329 325 321 319 321 322 322 323 325 325 323 322 321 318 316 314 314 314 313 311 310 308 306 304 301 299 297 295 293 291 287 283 279 275 270 267 266 266 264 261 257 254 253 255
266 256 255 259 262 263 263 264 266 269 273 278 279 277 274 272 271 272 271 273 280 294 313 329 337 339 339 338 335 331 327 324 320 317 316 316 316 317 320 320 319 319 319 318 318 316 316 316 315 311 310 308 305 303 301 298 297 295 293 291 290 286 281 276 271 266 263 262 262 261 259 257 255 253
271 262 262 263 261 260 258 258 258 261 264 268 271 273 275 275 273 273 274 275 280 286 295 308 323 333 334 333 332 330 327 326 323 321 320 319 317 314 315 316 314 314 316 317 317 318 317 318 317 315 313 311 308 306 303 300 297 295 292 290 288 287 284 279 273 266 261 258 257 258 257 257 257 255
271 267 267 265 261 258 256 254 254 255 258 261 265 269 272 272 269 269 271 275 280 284 286 291 306 321 326 326 327 327 326 325 324 323 321 320 320 318 317 317 315 313 314 314 313 314 315 315 316 315 313 312 312 311 309 305 301 296 292 288 286 284 283 281 277 271 264 257 253 253 253 254 255 256
273 270 267 263 261 258 257 256 254 254 254 256 258 262 264 263 261 260 263 268 274 278 280 284 294 307 316 320 322 324 324 323 321 320 319 319 321 322 321 321 319 316 316 315 313 313 313 313 314 314 312 311 311 311 310 307 303 299 294 290 286 283 281 280 279 275 269 262 256 251 250 250 251 253
275 271 267 264 262 259 258 257 256 255 253 252 252 252 252 252 253 254 256 261 271 278 281 286 293 301 310 317 320 322 323 321 317 315 316 317 318 320 320 320 320 318 317 317 315 314 315 314 313 313 312 310 309 308 307 306 303 300 296 291 288 284 283 281 279 276 271 265 259 254 250 249 248 249
269 267 264 263 262 260 259 257 257 256 253 251 248 244 241 243 247 250 253 261 273 279 281 286 292 297 307 314 318 321 321 317 313 311 312 313 314 315 316 316 316 316 316 317 315 314 315 315 313 312 311 309 308 307 305 303 300 297 295 293 289 285 283 281 279 276 271 264 259 255 252 249 248 246
265 265 263 263 262 262 261 259 258 257 254 251 245 237 236 240 244 247 254 266 276 280 283 289 292 295 302 307 312 317 316 311 308 307 308 309 309 310 311 312 313 314 314 316 315 313 313 312 311 310 309 308 307 306 304 303 300 296 294 290 286 283 280 278 276 272 268 263 258 254 252 250 248 247
285 283 277 271 264 261 260 258 259 257 250 244 239 236 236 238 241 247 259 271 278 283 288 292 292 295 300 303 308 312 310 305 303 303 304 306 306 307 309 310 312 313 314 314 315 314 312 310 308 307 308 308 307 305 304 303 300 298 294 286 278 273 270 269 267 266 264 260 255 252 250 249 248 247
311 314 308 298 281 269 260 252 250 245 236 230 230 233 233 235 244 255 267 275 280 285 289 288 290 295 298 300 304 307 305 303 303 305 307 308 308 308 309 310 311 311 311 311 313 312 310 309 307 306 307 306 305 305 305 304 301 297 292 283 274 267 263 263 263 263 263 260 256 252 247 244 242 242
315 317 319 317 311 303 290 273 255 233 219 219 224 229 234 243 255 265 272 276 280 282 284 285 290 295 297 300 304 306 304 304 306 307 307 306 306 306 307 307 306 306 307 308 310 309 308 307 306 305 306 306 305 305 306 306 303 298 289 280 273 268 263 262 262 262 263 263 262 259 253 248 247 247
313 316 318 317 317 315 312 311 304 260 230 228 231 238 247 256 264 270 274 278 280 282 285 288 293 297 301 304 305 304 304 304 304 304 303 302 303 304 304 303 303 305 306 306 306 306 306 305 304 305 306 306 305 304 305 305 302 296 287 277 271 269 264 260 261 262 262 264 265 265 263 259 257 257
318 321 321 320 318 315 313 311 299 268 251 246 248 254 259 263 269 275 280 282 284 287 291 295 299 302 303 304 303 302 302 303 302 301 301 302 303 303 302 302 302 302 302 302 302 303 302 301 300 301 303 303 301 299 300 300 297 294 289 278 269 268 264 260 259 260 261 264 265 267 267 265 261 260
327 327 326 323 316 308 303 295 284 272 264 261 262 263 266 272 278 282 286 289 292 293 295 298 300 301 301 301 301 301 301 301 301 302 303 303 303 302 301 301 298 294 293 295 297 298 298 297 295 294 292 292 292 291 292 293 292 290 289 284 278 276 272 265 263 263 264 265 265 265 265 263 261 260
331 330 327 318 305 297 291 284 279 276 271 269 269 270 274 278 281 285 288 291 293 295 296 298 299 299 299 300 300 300 301 302 303 304 304 303 303 301 300 298 294 291 290 291 291 292 293 291 288 287 284 280 282 285 288 288 287 285 285 284 282 283 282 277 273 271 270 270 269 267 262 258 257 255
326 327 321 308 298 294 291 287 283 280 278 275 274 276 279 282 284 286 287 288 291 294 296 298 299 299 300 301 301 302 303 304 305 305 305 304 302 301 298 296 293 289 289 290 289 288 288 285 281 281 279 277 278 282 284 284 284 285 285 282 279 280 281 279 276 274 272 272 271 267 259 253 250 248
317 316 308 301 296 293 292 289 284 281 280 278 277 279 283 286 287 288 289 291 294 295 297 298 300 301 303 304 305 306 306 306 307 306 304 303 301 300 298 297 294 292 292 293 290 285 282 282 279 275 274 276 278 279 280 281 283 285 283 281 280 279 278 277 275 274 271 268 268 266 258 250 246 244
306 305 302 300 298 296 293 288 283 279 278 278 279 283 287 290 293 294 295 297 298 299 301 303 305 307 308 308 309 308 307 307 307 306 304 303 304 303 302 300 298 297 298 296 291 284 278 276 275 273 271 273 274 276 278 280 281 282 282 283 282 279 278 277 275 273 270 268 269 268 263 256 252 252
301 302 302 301 299 297 293 288 284 282 283 286 289 293 296 299 300 300 301 303 305 306 308 310 312 312 311 310 310 309 308 309 309 308 307 307 307 307 306 304 302 301 301 300 296 289 279 274 273 272 270 268 268 271 274 276 278 278 279 281 281 280 278 276 272 271 270 268 266 264 262 260 258 257
297 298 298 297 295 292 287 286 287 289 294 299 301 302 303 303 304 306 309 312 313 315 316 317 316 314 312 311 311 311 311 312 311 310 309 309 310 310 309 307 306 306 307 304 298 289 279 273 271 270 269 268 267 268 270 273 276 276 275 277 279 279 278 274 270 268 267 266 264 260 257 255 253 253
291 292 291 288 285 283 283 286 291 296 301 303 305 306 308 310 313 316 318 320 320 321 321 320 318 315 314 315 316 315 314 314 314 314 313 313 315 317 315 312 310 312 313 310 302 292 284 276 271 269 269 269 268 268 269 270 273 275 275 275 274 275 274 273 270 266 264 265 263 258 257 259 257 253
283 281 279 277 277 279 284 290 295 300 305 308 311 315 317 319 322 324 325 326 326 325 325 323 321 319 318 319 320 319 319 318 319 319 319 318 319 320 317 313 311 313 314 312 306 299 290 282 273 270 270 269 269 271 271 270 271 273 274 273 272 272 272 271 271 270 268 268 266 264 264 268 266 261
270 266 264 267 273 278 284 293 301 308 313 316 317 320 322 324 328 330 332 332 331 329 328 326 323 322 321 322 322 322 320 320 320 320 320 320 320 318 314 310 309 310 311 313 314 310 301 291 280 274 271 269 269 269 269 270 271 272 272 274 274 274 274 273 273 272 270 268 269 271 272 273 272 267
249 251 256 261 268 277 287 299 307 312 316 317 318 320 325 330 334 336 336 336 334 332 330 327 324 324 324 324 324 321 319 319 320 320 321 320 317 313 309 307 308 312 313 314 315 314 309 304 298 291 284 278 274 271 267 267 270 273 273 274 273 273 275 277 275 273 270 268 271 274 274 273 272 268
240 246 253 260 272 285 294 303 309 313 317 318 318 324 333 338 339 340 340 338 335 332 330 327 325 325 325 324 323 322 320 321 322 322 320 316 311 309 309 309 312 316 315 313 315 317 316 314 311 304 298 292 287 282 277 274 277 278 275 273 273 273 276 279 276 272 269 265 266 269 270 271 271 270
243 247 253 266 283 293 299 306 311 315 318 319 321 332 341 342 343 342 340 337 336 334 332 330 327 326 325 324 323 322 322 322 322 322 319 315 313 313 314 314 317 319 318 316 318 320 318 315 311 305 300 295 290 286 285 286 286 283 275 270 271 273 273 272 271 269 267 266 266 267 269 271 274 277
237 246 257 272 287 296 302 308 313 316 316 318 331 342 345 344 342 341 340 339 339 338 336 335 332 328 325 323 321 321 322 322 320 317 315 315 315 316 316 316 317 319 318 318 319 319 316 313 311 306 301 294 287 284 286 287 287 286 280 272 269 268 266 268 272 274 272 273 274 273 273 274 276 279
223 239 258 275 289 298 303 309 313 313 310 326 346 347 344 343 342 342 342 341 341 342 342 339 333 326 323 320 319 320 322 321 318 314 314 316 317 318 318 317 318 318 317 316 318 319 318 316 317 314 306 295 284 283 288 289 286 282 274 265 263 264 264 268 277 283 281 279 281 282 281 280 278 276
219 240 258 278 291 296 300 302 300 293 305 349 354 348 342 342 343 344 344 343 343 344 343 339 334 330 325 322 321 321 320 321 320 318 318 318 318 319 320 319 318 318 317 317 318 319 316 317 321 319 309 297 287 284 285 284 278 273 271 268 265 265 266 269 275 281 283 285 288 293 294 291 282 272
226 242 258 276 283 283 283 280 260 231 1 1 354 344 340 343 346 347 346 345 344 344 342 339 339 337 333 330 329 325 320 320 321 320 321 321 320 321 321 319 317 318 318 319 320 318 315 317 318 313 304 296 291 286 280 277 276 279 285 285 272 261 262 264 267 272 276 281 287 292 291 291 288 276
228 240 254 264 264 260 251 225 193 134 17 359 347 341 342 345 347 348 347 345 343 342 343 343 343 342 341 341 340 333 324 323 323 323 323 324 324 322 321 320 319 320 320 319 319 318 316 314 312 308 304 301 297 289 280 276 278 283 292 295 273 255 255 257 262 267 269 273 279 281 280 284 290 285
227 237 243 244 241 230 203 177 159 59 9 351 341 340 344 348 349 349 347 345 344 345 347 347 346 345 346 349 349 343 335 330 327 326 327 328 327 324 323 322 321 319 317 316 318 320 318 312 308 307 309 310 306 295 286 282 281 283 286 286 280 271 264 261 264 266 264 264 267 267 270 282 297 294
225 229 232 231 222 199 176 161 134 30 3 349 342 343 347 350 351 350 347 345 346 349 350 349 348 348 350 353 354 351 344 337 330 326 327 330 329 327 326 323 320 318 316 317 320 324 323 316 310 309 312 316 314 303 293 289 286 283 282 281 281 280 276 270 264 258 254 255 257 258 262 264 265 282
228 227 225 218 198 179 169 158 88 18 2 351 346 347 350 351 350 349 346 345 348 352 353 353 352 352 352 354 356 355 350 342 334 329 331 334 334 332 329 324 321 320 321 321 324 328 328 322 313 310 313 318 318 309 301 295 285 279 280 280 279 281 282 279 269 261 258 254 248 247 249 238 220 226
222 216 208 197 182 173 168 150 30 9 360 353 351 351 350 348 347 348 347 347 350 354 356 355 354 353 353 354 356 356 354 349 343 338 338 339 338 335 332 328 324 323 324 323 325 329 331 327 316 309 312 318 319 314 307 299 291 286 285 285 286 288 292 302 314 310 286 235 206 204 212 206 194 187